STARLINK-2290 (47994 NORAD) Tracking and Keplerian Element Data

This shows tracking and keplerian element data for the satellite.

Feedback or suggestion? Click here.




ElementValue
Catalog47994
NameSTARLINK-2290
Epoch Orbit197
Epoch Day173.91668981
Epoch Year2021
RAAN116.768
Inclination53.0504
Eccentricity0.0001268
Argument of Perigee61.2813
Mean Anonmoly324.6259
Mean Motion15.38611253
Decay Rate-0.00994933
L11 47994U 21024T 21173.91668981 -.00994933 00000-0 -28222-1 0 9990
L22 47994 53.0504 116.7680 0001268 61.2813 324.6259 15.38611253 1972

Live tracking and technical data element details for STARLINK-2290 (NORAD 47994). STARLINK-2290 can be tracked NOW for your location showing map with azimuth and elevation plus other details from your city location.

Track the satellite on the map from your city or location and see movement details for azimuth, elevation, latitude, longitude, range, height, and movement on the map or in text.







IsCatalogInMostPopularTable: catalog: 47994, numindb: 42
Update: records affected: 1



GetName: 47994 STARLINK-2290

Hit Count: updated at: Thu, 24 Jun 2021 04:18:30 GMT